Weather History for Regina, SK

Change the Weather History Date:

Friday, March 8, 2013

  Actual Average Record
Temperature  
Mean Temperature 7 °F -  
Max Temperature 14 °F 19 °F 39 °F (2007)
Min Temperature 0 °F 1 °F -31 °F (2003)
Degree Days  
Heating Degree Days 58    
Moisture  
Dew Point 4 °F    
Average Humidity 87    
Maximum Humidity 92    
Minimum Humidity 73    
Precipitation  
Precipitation 0.00 in - - ()
Sea Level Pressure  
Sea Level Pressure 30.24 in    
Wind  
Wind Speed 7 mph ()    
Max Wind Speed 13 mph    
Max Gust Speed -    
Visibility 11.7 miles    
Events Snow    
Averages and records for this station are not official NWS values.
T = Trace of Precipitation, MM = Missing Value Source: Averaged Metar Reports

Daily Weather History Graph

Daily Weather History Graph

Search for Another Location

Airport:

Trip Planner

Search our weather history database for the weather conditions in past years. The results will help you decide how hot, cold, wet, or windy it might be!

Date:

Astronomy

Mar. 08, 2013 Rise Set
Actual Time 7:26 AM CST 6:52 PM CST
Civil Twilight 6:54 AM CST 7:25 PM CST
Nautical Twilight 6:16 AM CST 8:03 PM CST
Astronomical Twilight 5:38 AM CST 8:41 PM CST
Moon 5:29 AM CST (3/8) 3:35 PM CST (3/8)
Length of Visible Light 12h 30m
Length of Day
11h 25m
Waning Crescent, 11% of the Moon is Illuminated
Mar 8
Waning Crescent
Mar 11
New
Mar 19
First Quarter
Mar 27
Full
Apr 2
Last Quarter

Hourly Weather History & Observations

Time (CST) Temp. Windchill Dew Point Humidity Pressure Visibility Wind Dir Wind Speed Gust Speed Precip Events Conditions
12:00 AM 14 °F - 11 °F 81% 30.23 in 9 mi NW 11.5 mph - -   Overcast
12:00 AM 14.0 °F -0.2 °F 10.4 °F 86% 30.23 in 15.0 mi NW 12.7 mph - N/A Snow Light Snow
1:00 AM 12.2 °F -0.2 °F 10.4 °F 92% 30.25 in 15.0 mi NW 9.2 mph - N/A Snow Light Snow
2:00 AM 6.8 °F -5.9 °F 5.0 °F 92% 30.26 in 15.0 mi WNW 8.1 mph - N/A   Scattered Clouds
3:00 AM 3.2 °F -12.2 °F 1.4 °F 92% 30.27 in 15.0 mi NW 10.4 mph - N/A   Partly Cloudy
4:00 AM -0.4 °F -13.4 °F -2.2 °F 92% 30.27 in 15.0 mi West 6.9 mph - N/A   Partly Cloudy
4:50 AM -0.4 °F -16.7 °F - N/A% - 15.0 mi WNW 10.4 mph - N/A Snow Light Snow
5:00 AM -0.4 °F -14.7 °F -2.2 °F 92% 30.28 in 15.0 mi West 8.1 mph - N/A Snow Light Snow
5:42 AM 1.4 °F -11.3 °F - N/A% - 4.0 mi WNW 6.9 mph - N/A Snow Light Snow
6:00 AM 2 °F - -1 °F 83% 30.30 in 2 mi WNW 5.8 mph - -   Overcast
6:00 AM 1.4 °F -9.9 °F -0.4 °F 92% 30.30 in 10.0 mi WNW 5.8 mph - N/A Snow Light Snow
6:48 AM 5.0 °F -2.1 °F - N/A% - 10.0 mi NNW 3.5 mph - N/A Snow Light Snow
7:00 AM 5.0 °F -2.1 °F 1.4 °F 85% 30.29 in 10.0 mi NW 3.5 mph - N/A Snow Light Snow
7:49 AM 5.0 °F -4.1 °F - N/A% - 4.0 mi West 4.6 mph - N/A Snow Light Snow
8:00 AM 5.0 °F -4.1 °F 3.2 °F 92% 30.30 in 4.0 mi WNW 4.6 mph - N/A Snow Light Snow
8:25 AM 5.0 °F -2.1 °F - N/A% - 5.0 mi NNW 3.5 mph - N/A Snow Light Snow
8:39 AM 5.0 °F -2.1 °F - N/A% - 5.0 mi NW 3.5 mph - N/A Snow Light Snow
9:00 AM 5.0 °F -4.1 °F 1.4 °F 85% 30.30 in 7.0 mi West 4.6 mph - N/A Snow Light Snow
10:00 AM 3.2 °F -9.1 °F 1.4 °F 92% 30.30 in 10.0 mi SW 6.9 mph - N/A   Mostly Cloudy
11:00 AM 5.0 °F -4.1 °F 1.4 °F 85% 30.30 in 15.0 mi SW 4.6 mph - N/A   Partly Cloudy
12:00 PM 8 °F - 3 °F 73% 30.28 in 9 mi Calm Calm - -  
12:00 PM 6.8 °F - 3.2 °F 85% 30.28 in 15.0 mi Calm Calm - N/A   Partly Cloudy
1:00 PM 8.6 °F - 5.0 °F 85% 30.27 in 15.0 mi SW 2.3 mph - N/A   Partly Cloudy
2:00 PM 10.4 °F -2.4 °F 6.8 °F 85% 30.25 in 15.0 mi South 9.2 mph - N/A   Partly Cloudy
3:00 PM 10.4 °F -2.4 °F 6.8 °F 85% 30.23 in 15.0 mi South 9.2 mph - N/A   Partly Cloudy
4:00 PM 10.4 °F -1.5 °F 6.8 °F 85% 30.22 in 15.0 mi South 8.1 mph - N/A   Partly Cloudy
5:00 PM 10.4 °F -3.3 °F 5.0 °F 79% 30.21 in 15.0 mi SSE 10.4 mph - N/A   Partly Cloudy
6:00 PM 8 °F - 5 °F 80% 30.19 in 9 mi SSE 9.2 mph - -  
6:00 PM 8.6 °F -4.7 °F 5.0 °F 85% 30.19 in 15.0 mi SSE 9.2 mph - N/A   Partly Cloudy
7:00 PM 6.8 °F -7.8 °F 5.0 °F 92% 30.17 in 15.0 mi SE 10.4 mph - N/A   Partly Cloudy
8:00 PM 6.8 °F -8.6 °F 5.0 °F 92% 30.15 in 15.0 mi SE 11.5 mph - N/A   Mostly Cloudy
9:00 PM 6.8 °F -9.3 °F 5.0 °F 92% 30.15 in 15.0 mi SSE 12.7 mph - N/A   Mostly Cloudy
10:00 PM 8.6 °F -2.6 °F 5.0 °F 85% 30.14 in 15.0 mi SE 6.9 mph - N/A   Scattered Clouds
11:00 PM 8.6 °F -6.3 °F 6.8 °F 92% 30.11 in 15.0 mi SSE 11.5 mph - N/A   Mostly Cloudy